Powrót do katalogu

STARLINK-3915

AktywnyŁącznośćVLEO
NORAD 52581·PAYLOAD·🇺🇸 United States

Wystrzelony May 13, 2022 z Vandenberg Space Force Base

Loading…

Następne Przeloty (najbliższe 24 godziny)

TLE

ŚwieżeSource: CelesTrak SupGP

Epoka: Sep 14, 2026, 21:27 UTC

1 52581C 22051AX  26257.89423611 -.00031649  00000+0 -90558-3 0  2578
2 52581  53.1590 343.6895 0001178  82.9181  36.7312 15.35411554    17

Śledź STARLINK-3915 w czasie rzeczywistym z AllMySat

Download on the App Store